Terug naar catalogus

FENGYUN 1C DEB

ActiefPO
NORAD 37927·DEBRIS·🇨🇳 China

Gelanceerd May 10, 1999 vanaf Taiyuan Satellite Launch Center

Loading…

Volgende Passages (komende 24 uur)

TLE

VersSource: Space-Track

Epoch: Sep 14, 2026, 05:56 UTC

1 37927U 99025EPC 26257.24723131  .00017019  00000-0  19378-2 0  9996
2 37927  98.8174  72.4844 0005846 117.4079 242.7729 14.86259048691914

Volg FENGYUN 1C DEB in realtime met AllMySat

Download on the App Store